Regional Weather Roundup
Issued by NWS

Home | Current Version | Previous Version | Text Only | Print | Product List | Glossary On
Versions: 1 2 3 4 5 6 7 8 9 10 11 12 13 14 15 16 17 18 19 20 21 22 23 24 25 26 27 28 29 30 31 32 33 34 35 36 37 38 39 40 41 42 43 44 45 46 47 48 49 50
000
ASUS46 KSEW 180510
RWRWA

WASHINGTON REGIONAL WEATHER ROUNDUP
NATIONAL WEATHER SERVICE SEATTLE WA
900 PM PST SUN DEC 17 2017

NOTE:"FAIR" INDICATES FEW OR NO CLOUDS BELOW 12,000 FEET WITH NO
SIGNIFICANT WEATHER AND/OR OBSTRUCTIONS TO VISIBILITY.

WAZ507-509-555>559-180600-
SEATTLE, TACOMA, EVERETT, AND VICINITY

CITY           SKY/WX    TMP DP  RH WIND       PRES   REMARKS
EVERETT        CLOUDY    47  44  90 S24G35    29.95S
BOEING FIELD   CLOUDY    51  43  74 S14G30    30.00F
RENTON         CLOUDY    52  43  71 S16G22    29.99F
SEATAC AIRPORT CLOUDY    50  43  77 S21G26    29.99F
JBLM-MCCHORD   CLOUDY    50  46  86 S20G26    30.02F
PUYALLUP       CLOUDY    50  43  76 S12G17    30.02F
BREMERTON      LGT RAIN  45  44  97 S18G28    29.98F
JBLM-FT LEWIS  MOCLDY    49  49  99 S14       30.02F
TACOMA NARROWS CLOUDY    48  43  82 S21G36    30.00F
$$

WAZ001-503-506-510-514-515-180600-
NORTH INTERIOR

CITY           SKY/WX    TMP DP  RH WIND       PRES   REMARKS
BELLINGHAM     LGT RAIN  48  46  93 S13G25    29.88F
FRIDAY HARBOR  CLOUDY    46  45  96 S7        29.91F
EASTSOUND      LGT RAIN  48  46  93 S15G22    29.89S
PORT ANGELES   CLOUDY    47  45  93 NW6       29.91F
EDIZ HOOK      CLOUDY    46  45  96 N3        29.91S
PORT TOWNSEND  CLOUDY    46  46 100 SE6       29.92F
NAS WHIDBEY    CLOUDY    50  45  83 SE16      29.96S
ARLINGTON      RAIN      47  45  93 S13       29.96F
BURLINGTON     CLOUDY    48  46  93 SE12      29.94F
$$

WAZ020-022-039-040-504-511-512-180600-
SOUTHWEST INTERIOR

CITY           SKY/WX    TMP DP  RH WIND       PRES   REMARKS
SHELTON        LGT RAIN  50  47  89 S13       29.98S
OLYMPIA        LGT RAIN  46  43  89 S13       30.03F
CHEHALIS       CLOUDY    48  43  81 S15G24    30.06F
KELSO          CLOUDY    45  42  89 S10       30.11F
VANCOUVER      CLOUDY    47  39  74 SE3       30.14S
SCAPPOOSE, OR  CLOUDY    42  41  96 CALM      30.14S
PORTLAND, OR   CLOUDY    48  38  68 S10       30.15S
$$

WAZ021-516-517-180600-
WASHINGTON COAST

CITY           SKY/WX    TMP DP  RH WIND       PRES   REMARKS
FORKS          LGT RAIN  50  49  96 SW8G17    29.95S FOG
HOQUIAM        LGT RAIN  49  49 100 S17       30.02F FOG
ASTORIA, OR    LGT RAIN  49  47  93 S10       30.07F FOG
$$

WAZ019-023-024-040-567>569-180600-
CASCADE MOUNTAINS AND COLUMBIA GORGE

CITY           SKY/WX    TMP DP  RH WIND       PRES   REMARKS
STAMPEDE PASS  LGT RAIN  37  37 100 SW10G25   29.91S FOG
TROUTDALE, OR  CLOUDY    48  42  80 CALM      30.15F
HOOD RIVER, OR CLOUDY    46  37  71 W13G23    30.06F
THE DALLES, OR CLOUDY    39  36  89 VRB3      30.07F
$$

WAZ026-027-041>044-520-521-180600-
EAST SLOPES

CITY           SKY/WX    TMP DP  RH WIND       PRES   REMARKS
OMAK           CLOUDY    33  32  96 SW14      29.89F WCI  23
WENATCHEE      CLOUDY    30  30 100 E8        29.91F
ELLENSBURG     FOG       32  31  96 NE6       29.91F VSB 1/4
YAKIMA         MOCLDY    30  27  88 VRB3      29.96F FOG
SUNNYSIDE ARPT FOG       28  28  98 CALM      29.98F VSB 1/4
YAKIMA TC      FAIR      27  26  93 CALM      29.93F
$$

WAZ028-034-035-180600-
COLUMBIA BASIN

CITY           SKY/WX    TMP DP  RH WIND       PRES   REMARKS
EPHRATA        FOG       31  27  85 CALM      29.92F VSB 1/2
MOSES LAKE     FOG       32  32 100 CALM      29.93F VSB 1/2
PASCO          CLOUDY    47  38  71 SW14      29.99F
RICHLAND ARPT  CLOUDY    46  40  80 S18       29.98F
HERMISTON, OR  CLOUDY    45  35  68 S10       30.01F
$$

WAZ036>038-180600-
NORTHEAST WASHINGTON

CITY           SKY/WX    TMP DP  RH WIND       PRES   REMARKS
SPOKANE GEIGER CLOUDY    34  33  96 S13       29.91F WCI  25
SPOKANE FELTS  CLOUDY    38  32  79 S7        29.93F
FAIRCHILD AFB  CLOUDY    34  34 100 S13       29.89F WCI  25
COEURDALENE,ID MIX PCPN  34  33  96 S12       29.93F WCI  25
DEER PARK      CLOUDY    33  32  96 S7        29.91F
$$

WAZ029>033-180600-
SOUTHEAST WASHINGTON

CITY           SKY/WX    TMP DP  RH WIND       PRES   REMARKS
PULLMAN        CLOUDY    35  30  82 SE17      29.97F WCI  25
LEWISTON, ID   CLOUDY    39  32  76 VRB5      30.00F
WALLA WALLA    CLOUDY    45  37  73 SW8       29.99F
PENDLETON, OR  CLOUDY    43  34  70 S8        30.01F
$$



USA.gov is the U.S. government's official web portal to all federal, state and local government web resources and services.